Location: Góry Miechowskie
(50.3599°N, 20.1803°E)
Time: 21:47:48
(UTC+00:00)

CZ-6A R/B DEB - Visible Passes

Search period start: 02 November 2024 00:00
Search period end: 12 November 2024 00:00
Orbit: 709 x 860 km, 98.8° (Epoch: 31 October)

Date Brightness Start Highest point End Pass type
(mag) Time Alt. Az. Time Alt. Az. Time Alt. Az.
02 Nov ? 17:09:17 10° SSE 17:14:08 81° ENE 17:19:13 10° NNW visible
02 Nov ? 18:51:20 10° WSW 18:54:12 15° W 18:57:09 10° NW visible
03 Nov ? 16:38:26 10° SE 16:43:05 46° ENE 16:47:56 10° N visible
03 Nov ? 18:18:30 10° SSW 18:22:40 28° W 18:26:59 10° NW visible
04 Nov ? 04:47:11 10° ENE 04:49:05 12° E 04:51:00 10° ESE visible
04 Nov ? 16:08:04 10° ESE 16:12:11 27° ENE 16:16:26 10° N visible
04 Nov ? 17:46:32 10° S 17:51:16 50° W 17:56:14 10° NNW visible
05 Nov ? 15:38:18 10° E 15:41:25 17° NE 15:44:37 10° NNE visible
05 Nov ? 17:15:08 10° SSE 17:20:02 90° E 17:25:11 10° NNW visible
05 Nov ? 18:57:38 10° WSW 19:00:12 14° W 19:02:49 10° NW visible
06 Nov ? 16:44:12 10° SE 16:48:57 51° ENE 16:53:56 10° N visible
06 Nov ? 18:24:33 10° SSW 18:28:37 25° W 18:32:50 10° NW visible
07 Nov ? 04:52:33 10° ENE 04:55:07 13° E 04:57:43 10° ESE visible
07 Nov ? 16:13:44 10° ESE 16:18:01 30° ENE 16:22:28 10° N visible
07 Nov ? 17:52:28 10° S 17:57:11 45° W 18:02:08 10° NNW visible
08 Nov ? 15:43:49 10° E 15:47:14 19° NE 15:50:45 10° NNE visible
08 Nov ? 17:20:58 10° SSE 17:25:55 82° WSW 17:31:08 10° NNW visible
08 Nov ? 19:03:59 10° WSW 19:06:10 13° W 19:08:25 10° WNW visible
09 Nov ? 16:49:57 10° SE 16:54:48 57° ENE 16:59:54 10° N visible
09 Nov ? 18:30:36 10° SW 18:34:33 23° W 18:38:39 10° NW visible
10 Nov ? 04:58:03 10° NE 05:01:08 15° E 05:04:13 10° ESE visible
10 Nov ? 16:19:23 10° SE 16:23:51 33° ENE 16:28:29 10° N visible
10 Nov ? 17:58:24 10° SSW 18:03:06 41° W 18:08:02 10° NNW visible
11 Nov ? 15:49:20 10° ESE 15:53:02 21° NE 15:56:49 10° N visible
11 Nov ? 17:26:48 10° S 17:31:48 75° WSW 17:37:03 10° NNW visible
11 Nov ? 19:10:26 10° WSW 19:12:09 12° W 19:13:52 10° WNW visible
